loading
|

DELTA 1 DEB, 3126

Orbit data source: Space-Track

DELTA 1 DEB, 3126 is space debris in LEO originally from a launch on Thu, 11 Jan 1968 UTC launched from the Air Force Western Test Range (AFWTR). Debris objects in space refer to the collection of defunct objects orbiting the Earth. Examples of debris include non-operational satellites, rocket bodies, and fragments generated from explosions, collisions, or faulty payload assembly.

Loading next visibility...
Loading greatness...
DELTA 1 DEB details
Identifier
3126, 1968-002C
Orbit
LEO
Last TLE update1 day ago
Origin
Flag of USGSFC (US)
ManufacturerUnknown
MissionSpacecraft
Bus & MotorUnknown bus, Unknown motor
MassUnknown
Launch date (UTC)
1968-01-11 (57 years ago)
Launch vehicleUnknown
Launch site
Air Force Western Test Range (AFWTR)
Object type
Payload
Rocket body
Debris
Shape & HBRUnknown
Radar Cross SectionSmall (<0.1 m²)

Expand to show TLE details & history

TLE from 1 day ago
0 DELTA 1 DEB
1 03126U 68002C   24283.96246622 -.00000042  00000-0  11712-3 0  9996
2 03126 106.0750 323.1250 0321074  57.6138  59.3573 12.82420854655415
Epoch: 2024-10-09T23:05Z
Definitive object data (Epoch: 2024-10-09T23:05:57.081Z)
Latitude56.25007°
Longitude162.99261°
Altitude1,220.583 km
Speed7.306 km/s
True Right ascension11h 14m 08s
True Declination56° 06' 03"
Sunlit
Object was in daylight at TLE epoch
Predictive object data (real-time)
Latitude-45.02858°
Longitude122.37689°
Altitude1,593.177 km
Speed6.959 km/s
Apparent Right ascension07h 30m 42s
Apparent Declination-43° 46' 21"
Sunlit
Object is in daylight
Predictive observer data (real-time)
Local Sidereal Time18:20:13
Azimuth247.847° W
Elevation-76.349°
Doppler factor1
Orbital elements
Apogee1,577.029 km
Perigee1,082.081 km
Semi-major axis7,707.692 km
Eccentricity0.0321074
Inclination106.075°
RAAN323.125°
Arg. of periapsis57.6138°
True anomaly62.58711°
Mean anomaly59.3573°
Eccentric anomaly60.96573°
Mean motion3.20743 °/min
BSTAR0.00011712
Period112.24 mins
No data available

DELTA 1 DEB Visibility forecast

Observer location: 39.9160978°, -105.1181434

DELTA 1 DEB is not visible in the next 10 days
Span
Click to sort rows by Start time (UTC) header in descending order
Start Az.
Max El. time (UTC)
Max El. Az.
Max El.
End time (UTC)
End Az.